QPF
0.04 0.04 0.07 0.07 0.05 0.04 0.02 0.02 0.01 0.02 0.01 0.01 0.02 0.02 0.02 0.02 0.02 0.03 0.03 0.03 0.02 0.02 0.02 0.02 0.01 0.01 0.02 0.03 0.03 0.04 0.03 0.02 0.02 0.02 0.02 0.02 0.02 0.03 0.05 0.06 0.06 0.07 0.07
0.03 0.03 0.04 0.06 0.05 0.02 0.02 0.01 0.01 0.02 0.03 0.03 0.03 0.03 0.03 0.02 0.01 0.02 0.02 0.02 0.02 0.02 0.02 0.02 0.01 0.01 0.02 0.03 0.04 0.07 0.06 0.05 0.04 0.03 0.04 0.03 0.02 0.03 0.04 0.04 0.05 0.07 0.07
0.06 0.03 0.03 0.03 0.04 0.03 0.03 0.01 0.02 0.02 0.03 0.04 0.04 0.04 0.03 0.03 0.02 0.01 0.02 0.03 0.03 0.03 0.03 0.02 0.03 0.04 0.03 0.03 0.05 0.07 0.05 0.05 0.06 0.06 0.07 0.07 0.05 0.04 0.06 0.06 0.05 0.06 0.06
0.05 0.02 0.02 0.02 0.02 0.02 0.02 0.03 0.03 0.03 0.04 0.04 0.05 0.05 0.03 0.03 0.03 0.03 0.03 0.03 0.03 0.04 0.04 0.04 0.04 0.05 0.05 0.05 0.04 0.04 0.04 0.04 0.04 0.07 0.08 0.08 0.08 0.06 0.06 0.09 0.11 0.09 0.09
0.03 0.02 0.03 0.03 0.04 0.03 0.03 0.05 0.06 0.07 0.06 0.05 0.04 0.04 0.03 0.04 0.05 0.05 0.04 0.03 0.03 0.04 0.03 0.03 0.04 0.05 0.05 0.05 0.05 0.04 0.03 0.02 0.03 0.04 0.06 0.07 0.07 0.06 0.05 0.05 0.08 0.13 0.16
0.02 0.02 0.04 0.04 0.05 0.05 0.04 0.06 0.10 0.10 0.06 0.05 0.05 0.05 0.04 0.05 0.05 0.06 0.04 0.03 0.03 0.04 0.04 0.04 0.04 0.04 0.04 0.04 0.04 0.03 0.02 0.02 0.03 0.02 0.03 0.05 0.07 0.07 0.06 0.04 0.04 0.05 0.08
0.02 0.03 0.05 0.03 0.03 0.03 0.03 0.04 0.08 0.08 0.06 0.07 0.07 0.07 0.06 0.06 0.05 0.03 0.03 0.02 0.03 0.04 0.05 0.03 0.02 0.02 0.01 0.01 0.01 0.01 0.02 0.02 0.02 0.03 0.03 0.04 0.04 0.04 0.04 0.04 0.03 0.04 0.05
0.04 0.02 0.02 0.02 0.03 0.03 0.02 0.02 0.03 0.03 0.05 0.06 0.06 0.07 0.07 0.06 0.04 0.03 0.03 0.04 0.04 0.04 0.04 0.03 0.02 0.01 0.01 0.01 0.01 0.01 0.01 0.01 0.01 0.01 0.02 0.04 0.04 0.03 0.03 0.03 0.03 0.03 0.04
0.06 0.06 0.07 0.07 0.04 0.02 0.01 0.01 0.01 0.02 0.03 0.04 0.05 0.06 0.07 0.07 0.05 0.04 0.03 0.03 0.03 0.03 0.03 0.02 0.01 0.01 0.01 0.01 0.01 0.01 0.01 0.01 0.01 0.01 0.02 0.02 0.02 0.03 0.02 0.03 0.04 0.03 0.03
0.09 0.08 0.08 0.13 0.06 0.02 0.02 0.02 0.02 0.02 0.02 0.03 0.03 0.04 0.06 0.06 0.05 0.04 0.04 0.03 0.03 0.02 0.02 0.02 0.01 0.01 0.01 0.01 0.01 0.01 0.01 0.01 0.01 0.01 0.01 0.02 0.03 0.04 0.03 0.03 0.03 0.03 0.02
0.07 0.11 0.10 0.08 0.03 0.02 0.03 0.04 0.06 0.04 0.02 0.03 0.04 0.04 0.05 0.05 0.04 0.04 0.02 0.02 0.02 0.02 0.02 0.02 0.02 0.02 0.03 0.03 0.02 0.01 0.01 0.01 0.01 0.01 0.01 0.01 0.01 0.02 0.03 0.03 0.03 0.03 0.02
0.05 0.05 0.07 0.05 0.02 0.01 0.02 0.05 0.06 0.03 0.02 0.03 0.03 0.03 0.04 0.04 0.04 0.03 0.03 0.02 0.01 0.01 0.02 0.03 0.03 0.04 0.04 0.03 0.02 0.02 0.02 0.01 0.01 0.01 0.02 0.02 0.01 0.01 0.02 0.04 0.04 0.03 0.03
0.05 0.02 0.01 0.01 0.01 0.02 0.02 0.03 0.02 0.01 0.02 0.02 0.03 0.02 0.03 0.03 0.03 0.02 0.02 0.01 0.01 0.01 0.02 0.03 0.02 0.03 0.03 0.04 0.03 0.03 0.02 0.01 0.01 0.01 0.01 0.02 0.02 0.01 0.02 0.03 0.04 0.03 0.03
0.05 0.02 0.01 0.02 0.03 0.03 0.03 0.03 0.03 0.02 0.03 0.03 0.05 0.04 0.03 0.02 0.02 0.03 0.01 0.01 0.01 0.01 0.02 0.02 0.01 0.01 0.01 0.02 0.02 0.02 0.02 0.01 0.01 0.01 0.01 0.01 0.01 0.01 0.02 0.02 0.02 0.02 0.01
0.04 0.04 0.04 0.04 0.05 0.05 0.05 0.05 0.04 0.03 0.03 0.03 0.07 0.08 0.03 0.02 0.02 0.03 0.02 0.01 0.02 0.01 0.02 0.01 0.01 0.01 0.01 0.01 0.01 0.01 0.01 0.01 0.01 0.01 0.01 0.01 0.02 0.01 0.02 0.02 0.02 0.02 0.02
0.05 0.05 0.04 0.04 0.04 0.05 0.05 0.06 0.05 0.04 0.04 0.03 0.04 0.07 0.05 0.02 0.02 0.04 0.03 0.03 0.03 0.02 0.02 0.02 0.01 0.01 0.01 0.01 0.01 0.00 0.01 0.01 0.00 0.01 0.01 0.01 0.01 0.01 0.01 0.01 0.01 0.02 0.02
0.07 0.07 0.06 0.05 0.07 0.09 0.09 0.08 0.06 0.04 0.03 0.02 0.02 0.04 0.06 0.04 0.02 0.02 0.02 0.02 0.02 0.02 0.02 0.01 0.01 0.01 0.01 0.01 0.01 0.01 0.01 0.01 0.01 0.01 0.00 0.00 0.01 0.01 0.01 0.01 0.01 0.00 0.01
0.09 0.08 0.08 0.07 0.08 0.08 0.08 0.06 0.04 0.03 0.02 0.02 0.03 0.06 0.06 0.05 0.02 0.02 0.02 0.01 0.01 0.01 0.01 0.01 0.00 0.01 0.01 0.01 0.00 0.01 0.01 0.00 0.01 0.00 0.00 0.00 0.00 0.01 0.01 0.01 0.02 0.01 0.01
0.07 0.06 0.08 0.08 0.07 0.06 0.07 0.07 0.04 0.02 0.02 0.03 0.06 0.08 0.08 0.07 0.03 0.02 0.02 0.01 0.01 0.01 0.00 0.00 0.01 0.01 0.01 0.01 0.00 0.00 0.01 0.01 0.01 0.01 0.01 0.01 0.01 0.01 0.01 0.02 0.05 0.03 0.02
0.07 0.06 0.07 0.08 0.09 0.10 0.09 0.06 0.03 0.02 0.02 0.04 0.07 0.08 0.08 0.06 0.03 0.02 0.02 0.01 0.01 0.01 0.01 0.01 0.01 0.01 0.01 0.01 0.01 0.01 0.01 0.01 0.01 0.00 0.01 0.01 0.01 0.01 0.01 0.01 0.03 0.04 0.03
0.09 0.06 0.05 0.04 0.04 0.04 0.05 0.05 0.04 0.03 0.02 0.05 0.06 0.06 0.05 0.04 0.03 0.02 0.02 0.02 0.02 0.01 0.01 0.01 0.01 0.01 0.01 0.01 0.02 0.01 0.01 0.01 0.00 0.00 0.00 0.01 0.01 0.01 0.01 0.01 0.01 0.02 0.03
0.07 0.09 0.07 0.06 0.05 0.04 0.04 0.04 0.05 0.04 0.03 0.06 0.07 0.06 0.05 0.03 0.03 0.02 0.02 0.01 0.01 0.01 0.01 0.01 0.01 0.01 0.02 0.01 0.02 0.01 0.01 0.01 0.00 0.00 0.01 0.01 0.01 0.01 0.01 0.01 0.00 0.01 0.01
0.04 0.12 0.15 0.11 0.08 0.07 0.06 0.04 0.05 0.05 0.06 0.08 0.09 0.08 0.06 0.04 0.03 0.02 0.02 0.01 0.01 0.01 0.01 0.01 0.01 0.01 0.01 0.01 0.02 0.02 0.01 0.01 0.00 0.01 0.01 0.01 0.01 0.02 0.01 0.01 0.01 0.01 0.01
0.05 0.07 0.11 0.10 0.07 0.09 0.08 0.05 0.04 0.04 0.06 0.06 0.07 0.07 0.05 0.03 0.02 0.03 0.02 0.01 0.01 0.02 0.02 0.01 0.01 0.01 0.01 0.01 0.01 0.01 0.01 0.01 0.01 0.01 0.00 0.01 0.01 0.01 0.01 0.01 0.02 0.02 0.01
0.04 0.06 0.07 0.04 0.04 0.05 0.07 0.04 0.03 0.03 0.05 0.06 0.07 0.05 0.04 0.03 0.03 0.02 0.02 0.02 0.02 0.02 0.02 0.01 0.02 0.02 0.01 0.01 0.01 0.01 0.01 0.01 0.01 0.01 0.00 0.00 0.00 0.00 0.00 0.00 0.01 0.02 0.02
0.03 0.03 0.03 0.02 0.02 0.02 0.02 0.02 0.02 0.03 0.04 0.05 0.04 0.03 0.03 0.03 0.03 0.02 0.02 0.03 0.03 0.03 0.03 0.04 0.04 0.03 0.02 0.01 0.01 0.01 0.01 0.01 0.02 0.02 0.01 0.01 0.01 0.01 0.01 0.01 0.00 0.01 0.01
MSLP
1008.29 1008.61 1008.99 1009.39 1009.82 1010.28 1010.80 1011.37 1011.99 1012.64 1013.28 1013.85 1014.32 1014.63 1014.77 1014.74 1014.58 1014.32 1014.04 1013.79 1013.63 1013.58 1013.65 1013.83 1014.06 1014.32 1014.57 1014.77 1014.92 1015.01 1015.07 1015.09 1015.11 1015.13 1015.14 1015.12 1015.07 1014.97 1014.81 1014.60 1014.36 1014.12 1013.93
1007.83 1008.26 1008.72 1009.18 1009.64 1010.11 1010.60 1011.14 1011.74 1012.38 1013.02 1013.62 1014.12 1014.47 1014.63 1014.60 1014.42 1014.13 1013.81 1013.53 1013.34 1013.28 1013.35 1013.54 1013.80 1014.07 1014.32 1014.52 1014.64 1014.70 1014.71 1014.71 1014.71 1014.72 1014.74 1014.76 1014.74 1014.67 1014.52 1014.32 1014.06 1013.78 1013.53
1007.26 1007.80 1008.36 1008.89 1009.38 1009.84 1010.30 1010.78 1011.33 1011.93 1012.56 1013.17 1013.70 1014.08 1014.29 1014.30 1014.15 1013.89 1013.59 1013.32 1013.14 1013.09 1013.18 1013.38 1013.64 1013.91 1014.15 1014.30 1014.38 1014.39 1014.35 1014.30 1014.27 1014.27 1014.30 1014.34 1014.36 1014.34 1014.23 1014.06 1013.82 1013.55 1013.28
1006.61 1007.25 1007.90 1008.50 1009.01 1009.45 1009.85 1010.27 1010.73 1011.27 1011.86 1012.46 1013.02 1013.46 1013.73 1013.84 1013.77 1013.59 1013.36 1013.15 1013.02 1013.01 1013.12 1013.34 1013.59 1013.84 1014.04 1014.15 1014.16 1014.11 1014.00 1013.90 1013.83 1013.80 1013.83 1013.89 1013.94 1013.97 1013.92 1013.81 1013.63 1013.41 1013.17
1005.96 1006.66 1007.38 1008.01 1008.53 1008.93 1009.26 1009.58 1009.96 1010.41 1010.95 1011.53 1012.11 1012.61 1012.99 1013.22 1013.28 1013.23 1013.12 1013.02 1012.97 1013.02 1013.16 1013.38 1013.63 1013.85 1014.00 1014.05 1014.00 1013.87 1013.69 1013.52 1013.39 1013.33 1013.33 1013.39 1013.47 1013.54 1013.57 1013.53 1013.44 1013.30 1013.16
1005.37 1006.11 1006.84 1007.48 1007.97 1008.32 1008.57 1008.78 1009.05 1009.41 1009.89 1010.45 1011.05 1011.63 1012.12 1012.49 1012.72 1012.83 1012.88 1012.91 1012.96 1013.08 1013.26 1013.49 1013.72 1013.91 1014.01 1014.00 1013.88 1013.68 1013.43 1013.19 1012.99 1012.88 1012.84 1012.88 1012.97 1013.07 1013.15 1013.20 1013.21 1013.19 1013.17
1004.92 1005.64 1006.37 1006.98 1007.42 1007.70 1007.85 1007.96 1008.11 1008.38 1008.78 1009.32 1009.95 1010.60 1011.21 1011.73 1012.13 1012.42 1012.64 1012.80 1012.97 1013.16 1013.39 1013.62 1013.84 1013.99 1014.05 1013.99 1013.82 1013.55 1013.24 1012.93 1012.66 1012.47 1012.38 1012.37 1012.44 1012.55 1012.67 1012.80 1012.92 1013.03 1013.15
1004.66 1005.33 1006.01 1006.57 1006.95 1007.14 1007.19 1007.20 1007.25 1007.42 1007.77 1008.28 1008.92 1009.63 1010.35 1011.01 1011.58 1012.04 1012.41 1012.72 1012.99 1013.26 1013.52 1013.77 1013.97 1014.10 1014.12 1014.03 1013.81 1013.51 1013.14 1012.77 1012.43 1012.17 1012.00 1011.93 1011.95 1012.04 1012.18 1012.37 1012.58 1012.82 1013.09
1004.59 1005.20 1005.81 1006.30 1006.60 1006.71 1006.68 1006.59 1006.55 1006.66 1006.94 1007.42 1008.07 1008.83 1009.64 1010.41 1011.12 1011.72 1012.23 1012.65 1013.02 1013.34 1013.64 1013.90 1014.10 1014.22 1014.22 1014.11 1013.88 1013.55 1013.16 1012.74 1012.34 1012.01 1011.76 1011.61 1011.57 1011.62 1011.76 1011.98 1012.27 1012.61 1013.01
1004.69 1005.23 1005.77 1006.19 1006.42 1006.46 1006.35 1006.20 1006.10 1006.14 1006.38 1006.83 1007.48 1008.27 1009.13 1009.99 1010.79 1011.50 1012.10 1012.62 1013.05 1013.43 1013.76 1014.03 1014.23 1014.35 1014.37 1014.27 1014.04 1013.72 1013.32 1012.89 1012.45 1012.06 1011.74 1011.52 1011.41 1011.41 1011.52 1011.74 1012.07 1012.48 1012.98
1004.92 1005.41 1005.88 1006.23 1006.39 1006.37 1006.22 1006.03 1005.89 1005.90 1006.10 1006.54 1007.17 1007.97 1008.85 1009.75 1010.60 1011.38 1012.05 1012.62 1013.11 1013.52 1013.87 1014.16 1014.39 1014.53 1014.57 1014.50 1014.32 1014.03 1013.66 1013.23 1012.79 1012.37 1012.00 1011.72 1011.54 1011.48 1011.56 1011.77 1012.10 1012.55 1013.09
1005.24 1005.68 1006.09 1006.37 1006.48 1006.43 1006.25 1006.04 1005.90 1005.89 1006.09 1006.50 1007.12 1007.90 1008.77 1009.67 1010.54 1011.34 1012.05 1012.66 1013.17 1013.62 1014.00 1014.32 1014.57 1014.75 1014.84 1014.82 1014.70 1014.47 1014.15 1013.77 1013.34 1012.93 1012.54 1012.23 1012.01 1011.91 1011.95 1012.12 1012.44 1012.88 1013.42
1005.62 1006.01 1006.35 1006.57 1006.64 1006.56 1006.38 1006.18 1006.05 1006.05 1006.24 1006.65 1007.24 1007.99 1008.84 1009.72 1010.58 1011.37 1012.08 1012.71 1013.25 1013.72 1014.13 1014.48 1014.78 1015.00 1015.15 1015.21 1015.16 1015.01 1014.77 1014.45 1014.09 1013.70 1013.34 1013.03 1012.79 1012.67 1012.68 1012.83 1013.11 1013.52 1014.03
1006.03 1006.36 1006.63 1006.78 1006.81 1006.71 1006.55 1006.37 1006.27 1006.30 1006.50 1006.89 1007.46 1008.17 1008.97 1009.81 1010.64 1011.41 1012.12 1012.75 1013.31 1013.80 1014.25 1014.65 1014.99 1015.28 1015.49 1015.63 1015.66 1015.61 1015.46 1015.22 1014.93 1014.62 1014.31 1014.03 1013.82 1013.70 1013.70 1013.82 1014.07 1014.43 1014.88
1006.46 1006.70 1006.89 1006.97 1006.95 1006.85 1006.70 1006.55 1006.49 1006.55 1006.78 1007.16 1007.71 1008.37 1009.12 1009.91 1010.68 1011.43 1012.12 1012.76 1013.33 1013.86 1014.35 1014.79 1015.20 1015.54 1015.83 1016.04 1016.16 1016.19 1016.14 1016.00 1015.81 1015.58 1015.35 1015.14 1014.98 1014.89 1014.90 1015.01 1015.22 1015.53 1015.91
1006.89 1007.03 1007.12 1007.12 1007.05 1006.94 1006.80 1006.70 1006.68 1006.78 1007.02 1007.41 1007.92 1008.54 1009.23 1009.96 1010.68 1011.40 1012.07 1012.71 1013.31 1013.87 1014.41 1014.90 1015.36 1015.77 1016.11 1016.39 1016.59 1016.71 1016.75 1016.72 1016.62 1016.50 1016.36 1016.23 1016.14 1016.10 1016.14 1016.26 1016.45 1016.71 1017.03
1007.32 1007.34 1007.31 1007.23 1007.12 1006.99 1006.88 1006.81 1006.84 1006.97 1007.22 1007.60 1008.08 1008.65 1009.28 1009.95 1010.62 1011.30 1011.97 1012.61 1013.23 1013.83 1014.41 1014.95 1015.46 1015.92 1016.33 1016.67 1016.93 1017.13 1017.25 1017.31 1017.32 1017.29 1017.26 1017.22 1017.21 1017.23 1017.31 1017.44 1017.62 1017.85 1018.11
1007.70 1007.59 1007.46 1007.31 1007.16 1007.03 1006.94 1006.91 1006.98 1007.14 1007.40 1007.76 1008.20 1008.72 1009.29 1009.89 1010.52 1011.17 1011.82 1012.47 1013.11 1013.74 1014.36 1014.95 1015.51 1016.02 1016.47 1016.85 1017.18 1017.43 1017.63 1017.77 1017.87 1017.94 1017.99 1018.05 1018.12 1018.21 1018.33 1018.48 1018.66 1018.86 1019.08
1008.01 1007.79 1007.58 1007.39 1007.22 1007.10 1007.04 1007.05 1007.15 1007.33 1007.59 1007.93 1008.33 1008.78 1009.29 1009.84 1010.42 1011.03 1011.66 1012.32 1012.98 1013.65 1014.30 1014.93 1015.52 1016.06 1016.55 1016.98 1017.35 1017.66 1017.91 1018.12 1018.29 1018.45 1018.59 1018.72 1018.86 1019.01 1019.17 1019.34 1019.52 1019.71 1019.91
1008.22 1007.94 1007.68 1007.47 1007.32 1007.23 1007.22 1007.27 1007.40 1007.59 1007.84 1008.14 1008.49 1008.89 1009.34 1009.83 1010.36 1010.94 1011.56 1012.21 1012.89 1013.57 1014.25 1014.91 1015.53 1016.11 1016.63 1017.09 1017.49 1017.84 1018.15 1018.42 1018.66 1018.88 1019.08 1019.28 1019.47 1019.66 1019.85 1020.04 1020.22 1020.41 1020.58
1008.34 1008.04 1007.79 1007.61 1007.50 1007.46 1007.49 1007.59 1007.74 1007.94 1008.17 1008.43 1008.74 1009.08 1009.46 1009.89 1010.39 1010.93 1011.54 1012.19 1012.87 1013.58 1014.28 1014.95 1015.60 1016.19 1016.73 1017.22 1017.66 1018.04 1018.39 1018.71 1019.00 1019.28 1019.53 1019.78 1020.01 1020.23 1020.43 1020.63 1020.81 1020.98 1021.14
1008.40 1008.13 1007.94 1007.82 1007.78 1007.80 1007.89 1008.02 1008.19 1008.38 1008.59 1008.82 1009.07 1009.35 1009.68 1010.07 1010.53 1011.06 1011.65 1012.30 1012.98 1013.69 1014.40 1015.09 1015.75 1016.36 1016.91 1017.42 1017.88 1018.30 1018.68 1019.04 1019.38 1019.69 1019.99 1020.26 1020.52 1020.75 1020.96 1021.16 1021.33 1021.49 1021.64
1008.45 1008.27 1008.16 1008.12 1008.16 1008.25 1008.38 1008.54 1008.72 1008.90 1009.08 1009.27 1009.48 1009.72 1010.02 1010.38 1010.81 1011.33 1011.91 1012.56 1013.25 1013.96 1014.67 1015.36 1016.02 1016.63 1017.19 1017.71 1018.18 1018.63 1019.04 1019.43 1019.79 1020.14 1020.46 1020.75 1021.02 1021.25 1021.47 1021.65 1021.82 1021.97 1022.11
1008.59 1008.50 1008.48 1008.54 1008.64 1008.79 1008.96 1009.13 1009.30 1009.46 1009.61 1009.77 1009.95 1010.17 1010.45 1010.80 1011.23 1011.75 1012.34 1012.99 1013.68 1014.39 1015.09 1015.77 1016.41 1017.01 1017.57 1018.08 1018.56 1019.01 1019.44 1019.84 1020.23 1020.59 1020.93 1021.23 1021.50 1021.74 1021.95 1022.12 1022.28 1022.43 1022.57
1008.85 1008.86 1008.93 1009.06 1009.22 1009.39 1009.57 1009.74 1009.89 1010.03 1010.16 1010.30 1010.47 1010.69 1010.97 1011.33 1011.78 1012.32 1012.92 1013.58 1014.27 1014.96 1015.65 1016.30 1016.91 1017.49 1018.02 1018.51 1018.98 1019.42 1019.85 1020.26 1020.66 1021.02 1021.36 1021.67 1021.95 1022.18 1022.39 1022.56 1022.72 1022.86 1022.99
1009.29 1009.38 1009.51 1009.67 1009.85 1010.03 1010.20 1010.35 1010.47 1010.59 1010.71 1010.84 1011.02 1011.25 1011.56 1011.96 1012.44 1013.01 1013.63 1014.30 1014.98 1015.66 1016.32 1016.93 1017.50 1018.03 1018.51 1018.97 1019.40 1019.82 1020.23 1020.63 1021.02 1021.39 1021.73 1022.04 1022.32 1022.56 1022.76 1022.94 1023.10 1023.25 1023.39
Thickness
5796 5798 5799 5797 5794 5790 5787 5784 5780 5777 5775 5770 5766 5762 5759 5758 5757 5757 5755 5754 5752 5750 5748 5746 5745 5743 5741 5739 5739 5737 5735 5733 5732 5729 5726 5727 5728 5727 5727 5727 5726 5726 5725
5790 5792 5792 5792 5790 5787 5784 5781 5779 5776 5773 5769 5765 5762 5759 5756 5755 5754 5753 5751 5750 5748 5747 5744 5742 5741 5738 5736 5735 5733 5730 5729 5729 5724 5719 5715 5716 5720 5723 5722 5722 5722 5722
5787 5787 5787 5787 5785 5783 5782 5781 5778 5775 5772 5768 5764 5760 5756 5753 5750 5749 5748 5748 5747 5746 5744 5742 5740 5738 5736 5733 5731 5729 5726 5723 5723 5723 5717 5709 5705 5708 5714 5716 5717 5717 5716
5788 5786 5785 5784 5784 5783 5782 5779 5776 5773 5769 5765 5761 5756 5750 5746 5746 5745 5745 5744 5744 5743 5741 5739 5737 5735 5733 5730 5728 5726 5724 5721 5717 5718 5717 5714 5709 5704 5702 5707 5710 5712 5711
5787 5785 5783 5783 5783 5781 5779 5776 5772 5769 5766 5763 5759 5754 5749 5747 5745 5743 5741 5740 5740 5740 5739 5737 5735 5732 5730 5727 5725 5723 5721 5719 5716 5713 5712 5710 5707 5705 5699 5696 5700 5703 5705
5786 5784 5783 5782 5779 5777 5774 5771 5768 5765 5764 5760 5756 5752 5748 5745 5741 5739 5737 5736 5735 5735 5735 5734 5731 5729 5727 5725 5722 5720 5718 5716 5714 5711 5709 5706 5702 5700 5697 5693 5692 5693 5697
5782 5780 5777 5775 5774 5772 5770 5767 5765 5762 5761 5757 5753 5750 5746 5743 5739 5736 5734 5732 5730 5730 5729 5729 5727 5725 5724 5722 5720 5717 5715 5713 5711 5708 5706 5704 5702 5700 5697 5692 5689 5688 5690
5779 5777 5775 5773 5772 5769 5767 5764 5760 5758 5756 5753 5750 5747 5744 5741 5738 5735 5733 5731 5729 5728 5727 5725 5723 5722 5720 5718 5716 5714 5711 5710 5707 5706 5703 5701 5699 5698 5695 5691 5686 5682 5681
5774 5773 5771 5768 5767 5765 5763 5760 5756 5753 5751 5749 5746 5743 5740 5737 5735 5733 5731 5729 5727 5726 5724 5721 5719 5718 5716 5714 5712 5709 5707 5705 5703 5701 5699 5697 5696 5694 5692 5690 5686 5680 5674
5769 5768 5766 5763 5762 5762 5760 5758 5755 5751 5747 5745 5742 5739 5736 5734 5732 5730 5728 5726 5724 5722 5720 5718 5716 5714 5711 5709 5707 5704 5703 5700 5698 5696 5694 5692 5690 5689 5688 5686 5683 5680 5676
5765 5764 5761 5760 5758 5757 5755 5752 5749 5745 5743 5740 5738 5734 5732 5731 5729 5726 5725 5723 5720 5719 5716 5713 5711 5709 5707 5704 5702 5699 5697 5694 5692 5691 5689 5687 5685 5683 5682 5681 5679 5676 5674
5761 5760 5757 5754 5752 5750 5748 5745 5743 5740 5737 5736 5733 5730 5728 5726 5724 5722 5720 5719 5717 5715 5712 5709 5707 5705 5702 5699 5696 5694 5692 5690 5687 5685 5683 5681 5680 5678 5676 5675 5673 5671 5670
5754 5753 5750 5747 5746 5744 5742 5739 5737 5735 5733 5731 5728 5725 5723 5721 5719 5717 5716 5714 5712 5710 5708 5705 5702 5700 5697 5695 5693 5690 5688 5686 5684 5681 5679 5677 5675 5672 5671 5670 5668 5666 5666
5746 5745 5742 5740 5739 5739 5737 5735 5733 5731 5728 5725 5722 5719 5718 5717 5715 5713 5711 5709 5707 5705 5703 5701 5699 5696 5693 5691 5688 5686 5684 5681 5679 5677 5675 5673 5671 5668 5666 5665 5663 5661 5659
5739 5739 5736 5733 5731 5730 5729 5729 5728 5726 5723 5720 5717 5715 5714 5712 5710 5708 5706 5704 5702 5700 5698 5696 5694 5692 5689 5687 5684 5682 5680 5676 5674 5672 5671 5669 5668 5666 5664 5662 5658 5656 5653
5734 5733 5731 5728 5725 5724 5723 5722 5720 5719 5717 5714 5712 5710 5708 5707 5705 5703 5701 5698 5696 5694 5692 5690 5688 5686 5685 5683 5681 5678 5675 5672 5669 5667 5665 5664 5663 5662 5660 5658 5656 5654 5650
5728 5727 5726 5724 5721 5720 5719 5716 5714 5712 5710 5708 5707 5705 5703 5701 5700 5699 5695 5692 5690 5688 5686 5684 5683 5681 5679 5678 5676 5674 5671 5667 5665 5663 5660 5660 5659 5656 5655 5653 5652 5650 5649
5722 5721 5721 5718 5717 5716 5714 5711 5709 5706 5704 5702 5700 5699 5698 5696 5695 5692 5689 5687 5685 5683 5681 5679 5677 5675 5674 5673 5671 5669 5666 5663 5660 5659 5657 5654 5652 5652 5650 5648 5645 5644 5643
5718 5717 5716 5714 5712 5711 5709 5705 5702 5700 5697 5695 5694 5693 5692 5690 5688 5686 5684 5682 5680 5678 5676 5674 5672 5670 5669 5668 5666 5664 5660 5657 5655 5654 5653 5650 5648 5647 5645 5642 5639 5637 5637
5712 5710 5708 5706 5705 5705 5703 5698 5695 5693 5691 5690 5689 5689 5687 5685 5684 5681 5679 5677 5675 5673 5671 5669 5667 5665 5663 5662 5661 5658 5655 5651 5649 5648 5647 5646 5644 5642 5639 5636 5633 5630 5630
5706 5703 5699 5697 5696 5697 5695 5690 5687 5687 5687 5686 5684 5683 5682 5680 5679 5676 5674 5672 5670 5667 5665 5663 5661 5660 5659 5658 5656 5653 5650 5647 5644 5642 5640 5640 5638 5636 5634 5631 5628 5626 5625
5696 5695 5691 5688 5689 5689 5687 5683 5680 5681 5681 5679 5677 5676 5675 5674 5674 5670 5668 5666 5664 5661 5659 5656 5655 5654 5654 5653 5651 5649 5646 5644 5640 5638 5636 5635 5633 5631 5628 5626 5624 5622 5619
5688 5686 5683 5681 5680 5680 5679 5675 5674 5674 5674 5672 5671 5670 5668 5667 5666 5664 5661 5659 5657 5655 5653 5651 5649 5648 5648 5647 5646 5644 5642 5639 5636 5634 5632 5630 5628 5625 5623 5621 5619 5616 5613
5679 5677 5676 5673 5672 5673 5672 5670 5668 5667 5666 5665 5664 5663 5661 5659 5658 5657 5656 5654 5652 5649 5647 5645 5644 5643 5642 5641 5640 5637 5635 5633 5629 5627 5626 5624 5622 5620 5618 5615 5613 5610 5607
5670 5669 5666 5664 5663 5663 5662 5662 5661 5660 5658 5657 5656 5655 5654 5652 5651 5649 5649 5648 5648 5647 5644 5642 5641 5638 5636 5637 5636 5632 5629 5627 5624 5621 5618 5616 5614 5612 5610 5608 5606 5604 5602
5661 5659 5658 5656 5655 5654 5654 5654 5654 5653 5650 5649 5648 5647 5647 5646 5644 5643 5642 5643 5643 5643 5642 5640 5638 5636 5635 5633 5630 5627 5624 5621 5618 5614 5611 5609 5607 5605 5604 5603 5601 5599 5597